www.pogodaiklimat.ru

Погода и климат >> Архив погоды >> Оман >> Адам


ПОГОДА в Адаме

  • Прогноз погоды в Адаме
  • Монитор погоды в Адаме

АРХИВ ПОГОДЫ в Адаме

Время (UTC), дата Ветер
(напр.,м/с)
 
Видим.   Явления Облачность Т
(С)
Тd
(С)
f
(%)
Тe
(С)
Тes
(С)
Комфортность P
(гПа)
Po
(гПа)
Тmin
(С)
Tmax
(С)
R
(мм)
R24
(мм)
S
(см)
12 15.01 1 20 км ясно +26.7 +12.6 42 +28 +31 жарко 1016.4 979.2
15 15.01 1 20 км ясно +25.0 +12.1 45 +27 +27 жарко 1017.5 980.1
18 15.01 З 2 20 км ясно +22.0 +11.2 50 +24 +24 комфорт 1019.1 981.2 +27.2
21 15.01 ЮВ 4 10 км ясно +19.5 +13.7 69 +21 +21 комфорт 1019.0 980.8
00 16.01 СЗ 3 10 км ясно +17.4 +13.0 75 +17 +17 1018.2 979.8
03 16.01 СВ 2 10 км ясно +15.8 +12.4 80 +16 +16 1019.2 980.5
06 16.01 1 10 км ясно +20.5 +14.5 68 +25 +35 комфорт 1020.0 981.9 +15.0
09 16.01 2 20 км ясно +25.7 +13.4 47 +28 +40 жарко 1016.2 978.9
12 16.01 2 30 км ясно +28.4 +12.2 37 +30 +32 жарко 1014.2 977.3
15 16.01 З 3 20 км ясно +25.9 +11.9 42 +27 +27 жарко 1015.6 978.3
18 16.01 З 2 30 км ясно +22.5 +10.5 47 +24 +24 комфорт 1017.0 979.3 +29.1
21 16.01 З 3 20 км ясно +20.0 +11.1 57 +22 +22 комфорт 1016.2 978.2
00 17.01 З 1 20 км ясно +18.2 +11.6 65 +20 +20 1016.0 977.8
03 17.01 СЗ 1 20 км ясно +16.5 +12.3 76 +17 +17 1017.2 978.7
06 17.01 1 20 км ясно +21.1 +14.1 64 +24 +33 комфорт 1018.1 980.1 +16.1
09 17.01 2 30 км ясно +25.7 +13.4 47 +28 +39 жарко 1014.7 977.4
12 17.01 2 40 км ясно +29.9 +8.1 26 +29 +32 жарко 1012.0 975.4
15 17.01 Ю 3 40 км ясно +25.9 +8.6 33 +26 +26 жарко 1013.9 976.7
18 17.01 Ю 4 40 км ясно +22.5 +7.7 39 +24 +24 комфорт 1015.8 978.1 +30.3
21 17.01 ЮЗ 4 30 км ясно +20.6 +11.9 57 +23 +23 комфорт 1016.0 978.0
00 18.01 С 2 30 км ясно +17.8 +12.1 69 +19 +19 1015.8 977.5
03 18.01 С 3 20 км 6/6 300 м
[]
+16.2 +12.4 78 +16 +16 1017.5 978.9
06 18.01 1 10 км 10/10 200 м
[]
+19.4 +16.1 81 +22 +22 комфорт 1018.9 980.7 +16.0
09 18.01 З 5 20 км ясно +24.1 +15.2 58 +27 +34 жарко 1015.5 978.0
12 18.01 З 6 30 км ясно +26.7 +12.2 41 +28 +29 жарко 1013.2 976.1
15 18.01 ЮЗ 5 30 км ясно +24.7 +12.2 46 +26 +26 жарко 1014.2 976.8
18 18.01 ЮЗ 4 10 км ясно +20.5 +10.1 51 +22 +22 комфорт 1015.8 977.9 +27.0
21 18.01 ЮЗ 4 10 км ясно +17.6 +8.6 56 +17 +17 1015.9 977.6
00 19.01 З 2 10 км ясно +15.6 +7.9 60 +16 +16 1015.8 977.2
03 19.01 СЗ 3 10 км ясно +14.3 +7.4 63 +14 +14 1017.4 978.6
06 19.01 1 10 км ясно +21.9 +8.2 41 +23 +33 комфорт 1017.7 979.9 +13.4
09 19.01 З 7 20 км ясно +28.1 +4.7 22 +27 +30 жарко 1013.9 976.9
12 19.01 З 9 10 км ясно +27.8 +3.8 21 +26 +27 жарко 1012.5 975.6
15 19.01 З 7 10 км ясно +22.9 +4.6 30 +23 +23 комфорт 1014.6 977.0
18 19.01 З 6 10 км ясно +19.5 +7.1 45 +20 +20 1016.6 978.5 +28.4
21 19.01 З 5 10 км ясно +16.4 +6.9 53 +16 +16 1017.1 978.6
00 20.01 ЮЗ 3 10 км ясно +14.7 +6.3 57 +14 +14 1016.9 978.2
03 20.01 З 4 10 км ясно +13.3 +5.3 58 +12 +12 1018.2 979.2
06 20.01 З 6 30 км ясно +21.5 +0.3 24 +21 +24 комфорт 1018.9 981.0 +13.0
09 20.01 З 11 2800 м 1/0
[]
+25.7 -8.0 10 +23 +23 комфорт 1015.2 978.0
12 20.01 З 12 10 км ясно +24.3 -2.1 17 +23 +23 комфорт 1014.2 976.8
15 20.01 З 11 20 км ясно +19.6 +1.2 29 +19 +19 1015.6 977.5
18 20.01 З 4 20 км ясно +16.7 +2.8 39 +16 +16 1017.6 979.1 +26.2
21 20.01 З 5 20 км ясно +13.9 +4.5 53 +12 +12 1017.8 978.9
00 21.01 В 2 20 км ясно +10.7 +4.2 64 +10 +10 1017.8 978.5
03 21.01 З 2 20 км ясно +9.6 +4.4 70 +9 +9 1020.0 980.5
06 21.01 2 30 км ясно +16.8 +5.2 46 +17 +26 1020.6 982.0 +9.2
09 21.01 2 20 км ясно +22.7 +7.0 36 +23 +36 комфорт 1016.7 979.0
12 21.01 2 20 км ясно +24.8 +4.2 26 +24 +27 комфорт 1014.4 977.0
15 21.01 З 5 20 км ясно +22.2 +2.5 27 +22 +22 комфорт 1015.9 978.2
18 21.01 З 3 40 км ясно +17.8 +0.6 31 +18 +18 1017.0 978.7 +25.1
21 21.01 ЮЗ 3 40 км ясно +14.3 +2.9 46 +14 +14 1016.9 978.1
00 22.01 С 3 30 км ясно +14.7 +5.3 53 +14 +14 1016.4 977.7
03 22.01 СВ 2 20 км ясно +11.7 +5.8 67 +11 +11 1017.9 978.7
06 22.01 1 20 км ясно +18.5 +9.4 55 +20 +30 1018.2 979.9 +11.0
09 22.01 1 30 км ясно +23.2 +5.8 32 +24 +37 комфорт 1015.0 977.4

 

Местоположение метеостанции Адам (Оман): широта 22.38 долгота 57.52 высота над уровнем моря 285 м.

В архиве по умолчанию представлена погода в Адаме за последнюю неделю. Архивные данные за месяц целиком и за предыдущие месяцы, начиная с января 2011 года, Вы можете получить, выбрав интересующий диапазон дат из раскрывающегося списка и нажав кнопку "Ввод!".


*Определитесь, кто Вы:
робот инопланетянин человек

Внимание! Время в таблицах - всемирное. Для получения местного времени необходимо прибавить поправку, которая равна 4 ч.

Смотрите также архив погоды в соседних городах и на ближайших метеорологических станциях:

Погода в Назве (Оман) (52 км)
Погода в Аль Мудайби (Оман) (64 км)
Погода в Бахле (Оман) (70 км)
Погода в Саике (Оман) (78 км)
Погода на Эш-Шам (Оман) (99 км)
Погода в Фахуде (Оман) (107 км)
Погода в Ибре (Оман) (108 км)
Погода в Самаиле (Оман) (111 км)
Погода в Рустаке (Оман) (114 км)
Погода в Карн Аль Алам (Оман) (122 км)

Пояснения к столбцам:

Ветер - указаны скорость ветра в м/с - средняя за 10 мин, порывы в срок и между сроками (в фигурных скобках) и направление, откуда дует ветер: С - северный, СВ - северо-восточный, В - восточный, ЮВ - юго-восточный, Ю - южный, ЮЗ - юго-западный, З - западный, СЗ - северо-западный.
Видимость - горизонтальная дальность видимости в метрах или километрах. При видимости от 1 до 10 км при отсутствии осадков обычно наблюдается дымка, при ухудшении видимости до 1 км и менее - туман. В сухую погоду видимость может ухудшаться дымом, пылью или мглою.
Явления - указаны атмосферные явления, наблюдавшиеся в срок или в последний час перед сроком; фигурными скобками обозначены явления, наблюдавшиеся между сроками (за 1-3 часа до срока); квадратными скобками обозначены град или гололедные отложения с указанием их диаметра в мм.
Облачность - указаны через наклонную черту общая и нижняя облачность в баллах и высота нижней границы облаков в метрах; квадратными скобками обозначены формы облаков: Ci - перистые, Cs - перисто-слоистые, Cc - перисто-кучевые, Ac - высококучевые, As - высокослоистые, Sc - слоисто-кучевые, Ns - слоисто-дождевые, Cu - кучевые, Cb - кучево-дождевые. Подробнее классификацию облаков см. в Атласе облаков (PDF).
T - Температура воздуха - температура, измеренная на высоте 2 м над землей.
Td - Температура точки росы - температура, при понижении до которой содержащийся в воздухе водяной пар достигнет насыщения.
f - Относительная влажность воздуха - влажноcть воздуха, измеренная на высоте 2 м над землей.
Te - Эффективная температура - температура, которую ощущает одетый по сезону человек в тени. Характеристика душности погоды. При расчете учитывается влияние влажности воздуха и скорости ветра на теплоощущения человека.
Tes - Эффективная температура на солнце - температура, которую ощущает человек, с поправкой на солнечный нагрев. Характеристика знойности погоды. Зависит от высоты солнца над горизонтом, облачности и скорости ветра. Ночью, в пасмурную погоду, а также при ветре 12 м/с и более поправка равна нулю.
P - Атмосферное давление - приведенное к уровню моря атмосферное давление.
Po - Атмосферное давление - измеренное на уровне метеостанции атмосферное давление.
Tmin - Минимальная температура - минимум температуры воздуха на высоте 2 м над землей.
Tmax - Максимальная температура - максимум температуры воздуха на высоте 2 м над землей.
R - Количество осадков - Количество выпавших осадков за период времени, мм. При наведении курсора мыши на число - период времени, за который выпало указанное количество осадков.
R24 - Количество осадков - Количество выпавших осадков за 24 часа, мм.
S - Снежный покров - Высота снежного покрова, см. При наведении курсора мыши на число - состояние снежного покрова и степень покрытия местности в баллах.